SCP
0 0 0 -0 -0 -0 -0 -0 0 0 0 0 0 0 0 0 0 0 0 0 0 0 0 0 0 0 0 0 0 0 0 0 0 0 0 0 0 0 0 0 0 0 0
0 0 0 0 -0 -0 -0 -0 -0 0 0 0 0 0 0 0 0 0 0 0 0 0 0 0 0 0 0 0 0 0 0 0 0 0 0 0 0 0 0 0 0 0 0
0 0 0 0 0 -0 -0 -0 -0 0 0 0 0 0 0 0 0 0 0 0 0 0 0 0 0 0 0 0 0 0 0 0 0 0 0 0 0 0 0 0 0 0 0
0 0 0 0 0 -0 -0 -0 -0 -0 0 0 0 0 0 0 0 0 0 0 0 0 0 0 0 0 0 0 0 0 0 1 1 1 0 1 0 0 1 0 0 0 0
0 0 0 0 0 0 -0 0 0 0 -0 0 0 0 0 0 0 0 0 0 0 0 0 0 0 0 0 0 1 1 1 1 1 1 1 0 0 1 1 1 0 0 1
0 0 0 0 0 0 0 0 0 0 0 0 0 0 0 0 0 0 0 0 0 0 0 0 0 0 0 0 0 0 0 1 0 1 0 0 1 1 1 2 2 1 0
0 0 0 0 0 0 0 0 0 0 0 0 0 0 0 0 0 0 0 0 0 0 0 0 0 0 0 0 0 0 0 0 0 1 1 1 1 1 2 1 1 2 1
-0 -0 0 0 0 0 0 0 0 1 1 0 0 0 0 0 0 0 0 0 0 0 0 0 0 0 0 0 1 1 1 1 1 1 0 1 1 1 1 2 1 1 1
-0 -0 0 1 0 0 0 0 1 0 0 0 0 0 0 -0 0 0 0 0 -0 0 0 0 0 0 0 0 0 0 0 0 0 0 0 0 0 0 0 1 1 1 1
-0 -0 -0 -0 0 0 0 0 0 0 0 0 0 0 0 0 -0 0 0 0 -0 -0 0 0 0 0 0 0 0 0 0 0 0 0 0 0 0 0 0 0 1 1 1
-0 -0 -0 -0 0 1 0 -0 -0 -0 -0 -0 0 0 0 -0 0 0 0 0 0 0 0 0 0 0 0 0 0 0 0 0 0 0 0 0 0 0 0 0 0 0 0
0 0 0 0 0 0 0 -0 -0 -0 -0 -0 -0 -0 -0 0 0 0 0 0 0 0 0 0 0 0 0 0 0 0 0 0 0 0 0 0 0 0 0 0 0 0 0
0 0 0 0 0 0 0 0 -0 -0 -0 -0 -0 0 0 0 0 0 0 0 0 0 0 0 0 0 0 0 0 0 0 0 0 0 0 0 0 0 0 0 0 0 0
1 1 0 0 0 0 0 0 0 0 0 0 0 0 0 0 0 0 0 0 0 0 0 0 0 0 0 0 0 0 0 0 0 0 0 0 0 0 0 0 0 0 0
1 1 1 1 0 1 1 1 0 0 0 0 0 0 0 0 0 0 0 0 0 0 0 0 0 0 0 0 0 0 0 0 0 0 0 0 0 0 0 0 0 0 0
2 2 1 1 1 1 0 0 0 0 0 0 0 0 0 0 0 0 0 0 0 0 0 0 0 0 0 0 0 0 0 0 0 0 0 0 0 0 0 0 0 0 0
1 1 1 1 1 1 1 0 0 0 0 0 0 0 0 0 0 0 0 0 0 0 0 0 0 0 0 0 0 0 0 0 0 0 0 0 0 0 0 0 0 0 0
1 1 1 1 1 1 0 0 0 0 0 0 0 0 0 0 0 0 0 0 0 0 0 0 0 0 0 0 0 0 0 0 0 0 0 0 0 0 0 0 0 0 0
1 1 1 1 1 0 0 0 0 0 0 0 0 0 0 0 0 0 0 0 0 0 0 0 0 0 0 0 0 0 0 0 0 0 0 0 0 0 0 0 0 0 0
2 1 1 1 1 0 0 0 0 0 0 0 0 0 0 0 0 0 0 0 0 0 0 0 0 0 0 0 0 0 0 0 0 0 0 0 0 0 0 0 0 0 0
0 0 0 1 0 0 0 0 0 0 0 0 0 0 0 0 0 0 0 0 0 0 0 0 0 0 0 0 0 0 0 0 0 0 0 0 0 0 0 0 0 0 0
0 0 0 0 0 0 0 0 0 0 0 0 0 0 0 -0 0 0 0 0 0 0 0 0 0 0 0 0 0 0 0 0 0 0 0 0 0 0 0 0 0 0 0
0 0 0 0 0 0 0 0 0 0 0 0 0 0 0 0 0 0 0 0 0 0 0 0 0 0 0 0 0 0 0 0 0 0 0 0 0 0 0 0 0 0 0
0 0 0 0 0 0 0 0 0 0 0 0 0 0 0 0 0 0 0 0 0 0 0 0 0 0 0 0 0 0 0 0 0 0 0 0 0 0 0 0 0 0 0
0 0 0 0 0 0 0 0 0 0 0 0 0 0 0 0 0 0 0 0 0 0 0 0 0 0 0 0 0 0 0 -0 -0 -0 0 0 0 0 0 0 0 0 0
0 0 0 0 0 0 0 0 0 0 0 0 0 0 0 0 0 0 0 0 0 0 0 0 0 0 0 0 0 0 0 0 0 -0 0 0 0 0 0 0 0 0 0
Wind_Speed_500mb
42 41 44 45 47 44 43 39 32 30 29 28 26 25 25 25 27 29 28 23 19 19 20 19 20 21 21 22 24 25 26 27 25 28 33 33 32 29 28 29 31 32 35
47 40 44 44 46 47 45 39 35 31 32 34 28 26 24 24 27 33 34 31 26 25 25 25 25 25 25 29 29 29 26 32 33 35 32 33 34 33 36 39 40 39 36
49 46 45 50 50 50 48 44 39 31 34 36 36 31 30 28 24 26 30 33 34 36 34 35 32 34 35 34 36 34 30 33 34 35 35 32 36 34 36 38 38 41 43
60 54 48 51 54 50 50 49 42 40 38 36 39 35 33 32 29 27 32 37 39 41 39 39 40 40 41 39 38 41 41 40 39 42 35 39 35 36 38 39 35 36 39
71 59 50 43 48 53 52 52 49 46 45 39 37 36 34 34 33 33 33 35 34 35 36 37 38 40 38 39 39 37 38 40 39 42 43 38 37 35 39 39 36 31 39
73 67 51 47 43 48 51 51 49 46 41 41 40 37 39 37 37 37 40 42 40 37 36 37 40 41 42 39 41 43 42 44 45 43 41 41 46 46 43 41 41 42 38
66 68 61 46 42 39 43 44 44 40 35 32 32 30 32 43 42 37 48 41 41 38 35 37 40 40 44 44 45 47 48 48 49 51 54 52 52 49 47 49 50 48 47
60 63 64 53 45 33 35 41 32 31 28 25 26 28 33 28 36 38 30 41 45 40 37 42 43 41 42 45 46 44 44 44 44 46 51 54 53 51 50 49 50 51 50
71 66 46 53 44 40 35 36 39 42 35 35 28 17 31 29 30 35 35 38 37 35 36 38 40 40 39 39 41 39 38 38 34 43 46 48 50 51 53 57 60 58 61
58 52 52 52 63 59 56 55 37 50 37 46 41 33 27 28 29 33 36 34 32 29 27 27 28 29 33 34 35 38 38 35 40 43 45 47 47 45 48 50 53 58 61
60 57 38 39 56 53 51 60 44 40 31 40 36 29 30 29 31 27 25 22 21 23 25 27 29 32 32 33 34 33 37 42 42 43 42 43 43 40 39 42 44 44 51
63 61 50 35 32 34 44 43 39 45 39 42 38 32 30 25 23 20 20 17 17 21 26 32 39 41 41 40 39 41 43 45 46 48 48 44 41 35 33 34 36 34 35
53 60 59 62 49 37 37 38 41 41 39 39 35 31 26 22 21 21 23 23 25 29 31 31 34 39 45 43 43 47 49 53 56 55 47 46 46 35 34 34 35 35 28
42 38 37 41 41 45 41 39 36 36 37 34 31 28 27 25 24 21 22 24 28 27 25 28 30 34 37 43 48 50 52 52 49 47 45 46 48 40 36 33 35 33 32
39 42 43 43 45 42 41 38 36 33 31 32 30 25 23 24 24 24 23 25 25 27 30 33 35 39 42 36 32 34 35 36 34 34 37 43 40 34 33 32 33 36 37
41 43 43 44 44 43 43 41 36 33 33 29 28 27 25 25 25 27 27 27 28 30 34 37 41 45 43 28 22 24 27 26 26 29 27 26 25 24 28 29 32 36 41
37 42 42 46 47 46 45 42 39 40 36 33 28 26 26 25 26 26 27 28 30 32 32 36 42 45 33 24 21 21 24 24 25 25 22 25 18 24 29 33 41 45 49
31 33 39 43 45 47 45 41 35 37 35 33 32 26 22 21 22 25 27 29 30 30 32 36 33 39 22 17 18 22 24 27 29 30 29 29 33 36 38 43 44 44 42
37 38 41 45 44 42 43 42 35 31 29 27 22 19 17 19 20 20 24 27 27 25 27 28 23 22 20 24 26 26 28 28 29 30 29 29 32 34 35 34 33 31 32
42 39 43 45 44 46 46 42 35 29 26 21 19 17 12 11 15 15 17 20 22 26 25 26 27 28 26 28 28 27 25 24 24 26 27 28 26 26 26 24 23 22 22
49 45 46 46 47 48 44 37 32 29 25 19 13 10 6 12 14 12 11 14 19 24 22 23 27 28 29 27 26 25 22 22 22 23 23 22 25 22 20 19 17 13 10
53 50 51 50 47 45 40 37 34 28 22 14 8 5 7 14 14 12 13 15 18 18 21 24 22 20 22 21 15 15 17 19 17 17 17 15 13 11 7 3 3 6 12
56 47 47 48 46 44 39 37 34 29 22 14 5 2 7 13 15 14 14 15 16 17 20 19 18 17 15 13 11 9 8 5 6 8 6 6 5 7 8 8 12 24 29
50 44 49 45 40 44 41 38 35 28 21 13 4 4 9 14 16 14 13 13 11 13 13 14 15 15 14 12 12 14 14 13 15 16 14 16 16 18 21 27 32 26 23
37 51 56 49 62 49 42 39 34 26 19 12 6 12 15 17 18 13 13 12 9 11 12 13 8 8 7 10 14 18 21 26 33 35 36 35 33 32 29 24 18 11 9
48 44 47 43 50 53 48 40 33 25 19 14 13 16 19 21 18 14 15 14 8 6 6 7 6 3 6 11 17 21 23 24 27 27 28 24 18 16 13 10 9 6 7
Wind_Direction_500mb
215 213 206 207 209 209 207 209 215 211 205 207 213 223 228 238 246 253 254 258 272 277 275 278 270 267 267 273 274 277 278 279 275 281 285 286 284 283 281 282 285 270 265
216 216 208 206 209 210 208 210 209 216 221 216 226 223 232 246 262 265 253 251 258 265 272 270 269 272 272 267 270 271 271 269 268 275 275 284 284 282 275 275 277 275 271
217 217 211 210 212 214 213 208 211 217 211 218 220 230 242 253 263 261 250 245 259 266 272 271 275 269 268 272 271 268 265 268 267 268 274 277 280 285 282 280 280 272 275
218 217 215 215 215 216 217 217 221 224 221 227 230 236 249 256 257 247 251 256 266 267 267 268 266 263 267 269 269 269 264 265 266 267 266 268 276 279 282 282 285 280 274
215 217 217 217 219 220 222 223 226 232 235 234 234 241 251 247 245 255 254 256 258 264 267 270 270 267 267 266 267 267 264 266 267 267 269 269 274 272 276 283 279 280 281
211 214 216 215 216 220 222 223 224 229 234 239 243 240 241 248 253 254 257 261 262 265 267 270 272 271 270 267 262 266 266 266 267 266 267 270 272 278 276 276 277 280 280
207 214 214 212 213 217 222 225 229 231 236 242 246 244 250 254 250 255 259 259 265 268 271 272 272 271 271 269 269 270 270 269 269 273 274 273 276 277 278 277 278 277 273
211 213 216 213 217 216 224 223 225 227 222 230 252 250 242 270 249 248 260 255 263 270 274 274 273 272 273 270 270 272 276 278 279 275 275 276 278 277 275 275 277 275 273
201 209 220 224 217 215 210 205 208 222 235 246 231 242 249 263 248 249 255 263 272 280 278 274 275 278 277 273 273 274 276 277 280 278 277 279 279 277 275 274 272 275 276
191 186 228 225 222 222 209 202 211 222 253 208 235 238 245 240 243 250 257 264 272 275 274 276 278 279 282 280 278 280 283 286 290 287 284 279 279 282 279 275 274 269 272
198 212 217 220 228 223 217 212 212 207 214 218 229 230 233 244 251 254 258 257 260 266 269 277 280 281 279 281 279 278 286 294 296 295 294 293 286 285 284 282 277 277 272
214 208 204 213 220 223 204 205 211 215 224 224 226 227 235 237 238 236 241 248 258 268 275 276 277 279 276 277 275 276 283 288 291 293 295 295 295 292 285 287 287 282 281
205 213 219 225 232 222 220 213 205 212 218 218 220 226 230 219 218 238 247 248 268 281 284 284 286 286 277 273 275 278 282 286 287 284 284 287 289 285 278 285 289 288 288
186 196 204 200 202 210 207 209 212 211 208 217 219 216 215 218 234 234 247 262 278 279 279 295 297 301 299 286 280 280 283 285 285 283 282 283 283 278 272 271 285 284 287
182 185 192 197 203 200 202 203 208 214 212 210 209 202 212 225 232 242 256 262 271 273 277 287 297 305 308 299 288 290 294 297 294 291 286 285 283 269 263 265 280 285 286
184 183 191 193 195 198 205 203 204 206 203 206 210 221 229 234 242 250 262 266 276 281 287 293 301 306 305 293 290 300 314 308 310 317 308 302 290 269 259 266 284 290 293
187 187 187 186 187 195 200 204 204 201 203 208 219 229 244 246 246 253 259 269 273 278 285 297 307 310 301 278 291 298 305 305 307 306 309 300 297 274 275 286 288 290 291
188 190 185 188 191 195 199 202 194 201 210 223 232 236 241 239 245 256 265 272 278 283 289 299 301 303 288 282 285 287 290 294 295 294 289 286 284 287 282 280 282 285 286
197 195 200 196 194 194 196 193 199 208 205 211 217 225 235 250 258 268 277 281 284 289 298 303 296 302 301 298 293 289 287 293 297 297 297 292 287 281 279 278 280 280 277
191 199 198 192 191 192 194 197 201 199 200 202 213 232 244 268 279 278 275 276 288 296 295 307 302 297 296 291 290 289 294 298 299 296 292 293 292 290 287 282 277 276 274
195 198 195 193 189 194 200 199 195 195 193 196 207 226 274 326 312 295 285 290 303 307 306 309 310 303 299 297 290 283 293 296 293 292 292 292 294 288 284 278 275 272 258
197 200 193 191 193 195 199 198 192 190 190 191 186 229 293 339 328 305 286 292 303 310 318 325 326 322 318 310 299 292 293 300 302 301 299 297 303 303 298 286 197 162 147
205 199 196 195 193 194 196 195 192 188 190 178 169 278 317 338 332 308 290 295 307 311 320 328 334 347 352 355 359 347 339 344 356 358 11 24 50 88 103 111 129 133 129
204 203 199 196 203 195 190 188 188 191 193 195 203 321 321 328 324 304 278 274 293 309 315 324 334 352 6 31 49 56 67 80 86 86 92 94 100 105 115 125 127 126 132
213 206 213 215 212 197 191 186 192 194 201 218 270 317 315 318 315 292 261 255 291 303 307 307 306 343 44 68 85 92 95 97 99 100 101 104 104 103 107 112 118 116 122
235 233 211 214 208 196 197 194 199 202 213 241 276 295 301 302 294 267 243 238 258 284 293 289 265 196 132 116 111 112 111 109 106 107 109 115 120 123 121 126 137 140 171
Wind_Speed_850mb
42 41 44 45 47 44 43 39 32 30 29 28 26 25 25 25 27 29 28 23 19 19 20 19 20 21 21 22 24 25 26 27 25 28 33 33 32 29 28 29 31 32 35
47 40 44 44 46 47 45 39 35 31 32 34 28 26 24 24 27 33 34 31 26 25 25 25 25 25 25 29 29 29 26 32 33 35 32 33 34 33 36 39 40 39 36
49 46 45 50 50 50 48 44 39 31 34 36 36 31 30 28 24 26 30 33 34 36 34 35 32 34 35 34 36 34 30 33 34 35 35 32 36 34 36 38 38 41 43
60 54 48 51 54 50 50 49 42 40 38 36 39 35 33 32 29 27 32 37 39 41 39 39 40 40 41 39 38 41 41 40 39 42 35 39 35 36 38 39 35 36 39
71 59 50 43 48 53 52 52 49 46 45 39 37 36 34 34 33 33 33 35 34 35 36 37 38 40 38 39 39 37 38 40 39 42 43 38 37 35 39 39 36 31 39
73 67 51 47 43 48 51 51 49 46 41 41 40 37 39 37 37 37 40 42 40 37 36 37 40 41 42 39 41 43 42 44 45 43 41 41 46 46 43 41 41 42 38
66 68 61 46 42 39 43 44 44 40 35 32 32 30 32 43 42 37 48 41 41 38 35 37 40 40 44 44 45 47 48 48 49 51 54 52 52 49 47 49 50 48 47
60 63 64 53 45 33 35 41 32 31 28 25 26 28 33 28 36 38 30 41 45 40 37 42 43 41 42 45 46 44 44 44 44 46 51 54 53 51 50 49 50 51 50
71 66 46 53 44 40 35 36 39 42 35 35 28 17 31 29 30 35 35 38 37 35 36 38 40 40 39 39 41 39 38 38 34 43 46 48 50 51 53 57 60 58 61
58 52 52 52 63 59 56 55 37 50 37 46 41 33 27 28 29 33 36 34 32 29 27 27 28 29 33 34 35 38 38 35 40 43 45 47 47 45 48 50 53 58 61
60 57 38 39 56 53 51 60 44 40 31 40 36 29 30 29 31 27 25 22 21 23 25 27 29 32 32 33 34 33 37 42 42 43 42 43 43 40 39 42 44 44 51
63 61 50 35 32 34 44 43 39 45 39 42 38 32 30 25 23 20 20 17 17 21 26 32 39 41 41 40 39 41 43 45 46 48 48 44 41 35 33 34 36 34 35
53 60 59 62 49 37 37 38 41 41 39 39 35 31 26 22 21 21 23 23 25 29 31 31 34 39 45 43 43 47 49 53 56 55 47 46 46 35 34 34 35 35 28
42 38 37 41 41 45 41 39 36 36 37 34 31 28 27 25 24 21 22 24 28 27 25 28 30 34 37 43 48 50 52 52 49 47 45 46 48 40 36 33 35 33 32
39 42 43 43 45 42 41 38 36 33 31 32 30 25 23 24 24 24 23 25 25 27 30 33 35 39 42 36 32 34 35 36 34 34 37 43 40 34 33 32 33 36 37
41 43 43 44 44 43 43 41 36 33 33 29 28 27 25 25 25 27 27 27 28 30 34 37 41 45 43 28 22 24 27 26 26 29 27 26 25 24 28 29 32 36 41
37 42 42 46 47 46 45 42 39 40 36 33 28 26 26 25 26 26 27 28 30 32 32 36 42 45 33 24 21 21 24 24 25 25 22 25 18 24 29 33 41 45 49
31 33 39 43 45 47 45 41 35 37 35 33 32 26 22 21 22 25 27 29 30 30 32 36 33 39 22 17 18 22 24 27 29 30 29 29 33 36 38 43 44 44 42
37 38 41 45 44 42 43 42 35 31 29 27 22 19 17 19 20 20 24 27 27 25 27 28 23 22 20 24 26 26 28 28 29 30 29 29 32 34 35 34 33 31 32
42 39 43 45 44 46 46 42 35 29 26 21 19 17 12 11 15 15 17 20 22 26 25 26 27 28 26 28 28 27 25 24 24 26 27 28 26 26 26 24 23 22 22
49 45 46 46 47 48 44 37 32 29 25 19 13 10 6 12 14 12 11 14 19 24 22 23 27 28 29 27 26 25 22 22 22 23 23 22 25 22 20 19 17 13 10
53 50 51 50 47 45 40 37 34 28 22 14 8 5 7 14 14 12 13 15 18 18 21 24 22 20 22 21 15 15 17 19 17 17 17 15 13 11 7 3 3 6 12
56 47 47 48 46 44 39 37 34 29 22 14 5 2 7 13 15 14 14 15 16 17 20 19 18 17 15 13 11 9 8 5 6 8 6 6 5 7 8 8 12 24 29
50 44 49 45 40 44 41 38 35 28 21 13 4 4 9 14 16 14 13 13 11 13 13 14 15 15 14 12 12 14 14 13 15 16 14 16 16 18 21 27 32 26 23
37 51 56 49 62 49 42 39 34 26 19 12 6 12 15 17 18 13 13 12 9 11 12 13 8 8 7 10 14 18 21 26 33 35 36 35 33 32 29 24 18 11 9
48 44 47 43 50 53 48 40 33 25 19 14 13 16 19 21 18 14 15 14 8 6 6 7 6 3 6 11 17 21 23 24 27 27 28 24 18 16 13 10 9 6 7
Wind_Direction_850mb
215 213 206 207 209 209 207 209 215 211 205 207 213 223 228 238 246 253 254 258 272 277 275 278 270 267 267 273 274 277 278 279 275 281 285 286 284 283 281 282 285 270 265
216 216 208 206 209 210 208 210 209 216 221 216 226 223 232 246 262 265 253 251 258 265 272 270 269 272 272 267 270 271 271 269 268 275 275 284 284 282 275 275 277 275 271
217 217 211 210 212 214 213 208 211 217 211 218 220 230 242 253 263 261 250 245 259 266 272 271 275 269 268 272 271 268 265 268 267 268 274 277 280 285 282 280 280 272 275
218 217 215 215 215 216 217 217 221 224 221 227 230 236 249 256 257 247 251 256 266 267 267 268 266 263 267 269 269 269 264 265 266 267 266 268 276 279 282 282 285 280 274
215 217 217 217 219 220 222 223 226 232 235 234 234 241 251 247 245 255 254 256 258 264 267 270 270 267 267 266 267 267 264 266 267 267 269 269 274 272 276 283 279 280 281
211 214 216 215 216 220 222 223 224 229 234 239 243 240 241 248 253 254 257 261 262 265 267 270 272 271 270 267 262 266 266 266 267 266 267 270 272 278 276 276 277 280 280
207 214 214 212 213 217 222 225 229 231 236 242 246 244 250 254 250 255 259 259 265 268 271 272 272 271 271 269 269 270 270 269 269 273 274 273 276 277 278 277 278 277 273
211 213 216 213 217 216 224 223 225 227 222 230 252 250 242 270 249 248 260 255 263 270 274 274 273 272 273 270 270 272 276 278 279 275 275 276 278 277 275 275 277 275 273
201 209 220 224 217 215 210 205 208 222 235 246 231 242 249 263 248 249 255 263 272 280 278 274 275 278 277 273 273 274 276 277 280 278 277 279 279 277 275 274 272 275 276
191 186 228 225 222 222 209 202 211 222 253 208 235 238 245 240 243 250 257 264 272 275 274 276 278 279 282 280 278 280 283 286 290 287 284 279 279 282 279 275 274 269 272
198 212 217 220 228 223 217 212 212 207 214 218 229 230 233 244 251 254 258 257 260 266 269 277 280 281 279 281 279 278 286 294 296 295 294 293 286 285 284 282 277 277 272
214 208 204 213 220 223 204 205 211 215 224 224 226 227 235 237 238 236 241 248 258 268 275 276 277 279 276 277 275 276 283 288 291 293 295 295 295 292 285 287 287 282 281
205 213 219 225 232 222 220 213 205 212 218 218 220 226 230 219 218 238 247 248 268 281 284 284 286 286 277 273 275 278 282 286 287 284 284 287 289 285 278 285 289 288 288
186 196 204 200 202 210 207 209 212 211 208 217 219 216 215 218 234 234 247 262 278 279 279 295 297 301 299 286 280 280 283 285 285 283 282 283 283 278 272 271 285 284 287
182 185 192 197 203 200 202 203 208 214 212 210 209 202 212 225 232 242 256 262 271 273 277 287 297 305 308 299 288 290 294 297 294 291 286 285 283 269 263 265 280 285 286
184 183 191 193 195 198 205 203 204 206 203 206 210 221 229 234 242 250 262 266 276 281 287 293 301 306 305 293 290 300 314 308 310 317 308 302 290 269 259 266 284 290 293
187 187 187 186 187 195 200 204 204 201 203 208 219 229 244 246 246 253 259 269 273 278 285 297 307 310 301 278 291 298 305 305 307 306 309 300 297 274 275 286 288 290 291
188 190 185 188 191 195 199 202 194 201 210 223 232 236 241 239 245 256 265 272 278 283 289 299 301 303 288 282 285 287 290 294 295 294 289 286 284 287 282 280 282 285 286
197 195 200 196 194 194 196 193 199 208 205 211 217 225 235 250 258 268 277 281 284 289 298 303 296 302 301 298 293 289 287 293 297 297 297 292 287 281 279 278 280 280 277
191 199 198 192 191 192 194 197 201 199 200 202 213 232 244 268 279 278 275 276 288 296 295 307 302 297 296 291 290 289 294 298 299 296 292 293 292 290 287 282 277 276 274
195 198 195 193 189 194 200 199 195 195 193 196 207 226 274 326 312 295 285 290 303 307 306 309 310 303 299 297 290 283 293 296 293 292 292 292 294 288 284 278 275 272 258
197 200 193 191 193 195 199 198 192 190 190 191 186 229 293 339 328 305 286 292 303 310 318 325 326 322 318 310 299 292 293 300 302 301 299 297 303 303 298 286 197 162 147
205 199 196 195 193 194 196 195 192 188 190 178 169 278 317 338 332 308 290 295 307 311 320 328 334 347 352 355 359 347 339 344 356 358 11 24 50 88 103 111 129 133 129
204 203 199 196 203 195 190 188 188 191 193 195 203 321 321 328 324 304 278 274 293 309 315 324 334 352 6 31 49 56 67 80 86 86 92 94 100 105 115 125 127 126 132
213 206 213 215 212 197 191 186 192 194 201 218 270 317 315 318 315 292 261 255 291 303 307 307 306 343 44 68 85 92 95 97 99 100 101 104 104 103 107 112 118 116 122
235 233 211 214 208 196 197 194 199 202 213 241 276 295 301 302 294 267 243 238 258 284 293 289 265 196 132 116 111 112 111 109 106 107 109 115 120 123 121 126 137 140 171